GFSCGP_925_rhum_003.txt.gz
RH
74 91 94 80 78 67 81 86 81 66 60 68 64 61 53 48 51 50 47 44 44 47 42 40 38 34 33 39 47 62 94 99 99 100 99 95 92 91 86 70 52 37 22 27
84 90 73 70 74 77 78 82 78 58 63 63 63 63 50 46 46 44 43 45 49 50 45 42 42 40 41 50 65 99 100 100 99 99 90 86 84 67 60 46 34 22 28 31
89 73 67 73 82 78 71 76 65 66 64 60 62 55 38 30 31 37 39 38 36 36 36 37 43 47 50 63 85 99 99 99 97 92 85 79 73 54 41 27 25 26 28 28
75 66 76 88 89 81 84 73 75 78 84 83 60 71 39 38 36 34 37 36 35 38 40 37 42 51 63 63 82 98 98 94 89 88 83 83 62 44 34 27 25 25 25 25
77 84 94 84 80 76 74 69 75 80 88 92 72 84 54 46 45 40 36 41 41 39 42 41 44 45 53 70 81 100 91 86 84 84 79 73 50 40 29 26 26 24 22 22
73 68 70 73 68 67 64 74 71 74 78 92 66 73 55 38 35 36 37 35 41 38 44 48 44 54 81 77 84 94 81 78 79 76 68 65 56 35 28 27 25 23 21 20
76 77 76 72 77 73 70 98 94 95 96 81 59 75 52 37 33 33 30 35 40 41 44 51 62 77 87 89 85 81 74 70 70 66 61 66 55 38 26 26 24 22 21 20
96 87 75 76 70 80 82 80 91 88 83 72 64 77 56 42 34 33 30 27 27 38 43 57 65 75 84 89 81 76 70 64 62 60 57 52 55 32 26 26 25 24 22 20
97 90 77 81 72 63 99 97 68 95 87 93 68 58 41 37 34 36 35 31 31 33 47 55 74 79 89 86 78 74 68 64 63 69 53 56 43 29 26 25 24 23 22 19
78 93 77 79 73 72 81 78 96 97 95 90 64 61 58 37 25 30 40 40 37 35 49 62 76 86 90 84 78 71 67 66 72 65 53 46 32 26 26 24 22 22 20 18
81 96 88 90 91 80 93 98 100 98 96 87 69 45 41 34 35 44 47 43 44 42 50 63 80 84 87 81 75 71 68 68 62 49 43 33 29 28 26 23 22 21 19 17
78 90 98 83 70 65 64 72 72 90 88 88 83 60 31 33 56 50 48 50 56 59 56 78 78 74 75 72 70 67 65 61 52 45 41 37 33 29 24 22 20 19 19 18
85 99 97 88 87 77 97 80 71 69 77 86 84 58 28 32 54 50 55 58 67 78 80 75 71 69 67 63 60 57 58 54 46 43 39 33 28 24 22 21 20 19 19 20
71 94 94 77 78 98 99 82 85 96 94 74 72 60 44 39 46 50 47 55 72 79 76 73 68 62 58 54 50 47 46 45 41 35 29 25 23 22 22 22 21 21 21 24
84 98 97 93 79 94 100 95 86 98 81 79 57 57 45 41 50 53 59 61 79 82 76 71 66 57 49 45 42 41 40 36 32 28 25 23 23 23 24 23 22 23 26 30
86 99 100 97 94 97 99 98 92 84 78 74 66 66 44 41 48 75 76 66 79 82 75 70 63 53 47 45 38 37 34 30 27 26 25 25 26 26 25 24 25 28 30 31
98 99 100 91 90 100 97 93 94 88 78 76 84 60 47 50 66 80 70 68 76 81 76 70 60 51 45 39 36 34 31 28 27 26 27 28 28 27 26 26 28 30 31 32
98 100 100 97 98 98 94 74 70 75 62 68 62 54 56 59 69 72 66 71 68 77 73 68 60 52 44 38 35 32 29 28 29 30 30 30 28 28 27 27 29 31 32 32
83 98 100 100 100 88 63 72 78 79 77 59 69 63 52 57 65 61 73 72 66 73 69 66 59 49 42 38 34 31 33 32 31 32 32 30 28 27 27 29 32 32 32 33
87 88 100 100 98 94 52 82 65 69 73 61 57 59 59 69 79 75 72 78 80 76 70 63 53 45 41 39 35 35 36 34 36 34 32 30 27 26 30 32 31 32 34 38
98 98 99 97 96 80 62 65 71 77 67 65 64 57 72 74 74 72 70 72 71 69 62 55 49 43 41 37 34 38 37 39 35 32 30 28 29 32 32 31 31 36 39 37
87 97 96 92 94 76 60 74 80 61 61 64 69 74 80 78 72 70 69 70 66 64 56 50 45 43 40 37 35 40 41 35 31 30 30 33 34 32 32 33 38 40 38 37
93 75 78 81 71 56 59 63 59 64 68 64 70 77 71 73 72 67 66 61 58 55 52 47 44 44 41 38 36 40 37 32 30 31 35 35 34 34 38 40 41 41 39 43
76 76 83 72 60 66 64 57 61 76 71 73 75 74 70 71 64 62 59 57 54 50 47 44 44 44 45 38 37 34 32 31 31 35 38 38 36 40 42 41 42 42 47 58
80 77 75 78 70 66 61 60 68 81 79 76 72 70 69 65 65 60 59 54 51 49 47 46 46 46 44 37 34 32 31 31 33 34 36 40 42 43 42 41 44 53 49 62
84 76 79 78 64 64 62 68 75 77 79 73 69 69 64 60 61 58 58 54 52 50 49 48 46 43 39 35 33 32 31 32 30 37 45 44 44 43 44 46 42 37 44 62

GFSCGP_925_rhum_006.txt.gz
RH
62 73 76 53 52 43 47 51 50 42 41 50 44 42 36 32 32 33 33 31 28 28 28 30 31 31 32 33 37 41 51 70 93 99 100 96 87 93 91 88 80 66 46 28
71 81 50 50 51 57 54 54 50 41 39 46 42 42 35 32 32 30 29 28 27 26 26 27 30 29 32 33 43 50 59 86 98 98 97 94 84 76 74 76 53 38 26 32
62 57 54 59 61 65 58 59 54 53 43 42 49 46 27 22 21 22 24 24 23 23 24 25 24 26 31 35 44 56 69 90 87 99 91 80 68 69 58 41 32 28 30 31
62 48 63 63 64 57 62 45 51 59 61 63 45 53 29 24 23 23 24 24 24 24 22 23 24 23 26 35 46 64 84 82 92 92 78 68 68 64 53 43 37 29 30 31
60 70 73 76 65 57 58 52 53 54 60 62 53 84 36 30 30 27 23 20 19 20 21 24 24 24 24 32 56 77 91 82 91 85 79 72 67 62 44 36 30 30 32 31
55 53 55 54 55 56 52 58 58 57 62 87 52 50 41 28 24 21 21 20 17 21 23 25 29 28 28 35 66 87 90 83 82 85 80 71 57 46 39 35 32 32 31 30
65 64 57 54 62 58 59 71 73 82 90 63 29 41 40 25 24 22 20 16 17 19 22 24 28 31 35 52 72 81 80 77 80 83 77 62 53 52 40 34 31 30 30 29
78 69 62 60 62 56 66 62 64 58 43 40 32 53 34 21 22 22 21 20 18 20 20 18 24 33 40 57 67 75 73 72 76 74 67 56 52 46 34 31 31 29 29 28
86 80 59 59 54 56 71 91 55 75 68 89 46 42 28 24 28 24 21 19 28 28 29 27 22 38 46 58 66 68 68 68 70 66 57 56 50 38 34 32 30 29 29 28
62 83 55 56 63 61 66 57 87 95 82 69 43 46 35 24 22 18 19 26 29 30 33 31 26 39 51 60 64 65 64 64 61 59 59 63 45 38 34 31 31 30 27 25
58 66 72 76 82 62 82 91 95 77 75 67 54 32 20 25 29 36 33 30 34 38 39 39 29 42 58 63 65 64 62 63 63 62 67 49 38 34 30 30 29 27 26 26
59 72 88 71 44 45 45 57 62 94 88 88 62 50 20 23 21 32 32 33 34 42 46 45 37 53 62 64 64 63 64 66 65 65 58 48 38 30 29 27 26 25 25 26
62 97 87 69 70 60 73 59 59 92 92 88 80 47 25 27 25 24 25 28 35 47 50 55 55 60 61 63 64 64 64 60 55 44 40 34 31 29 27 26 25 26 27 29
59 68 87 67 68 61 100 73 87 97 93 65 64 52 37 32 31 28 28 36 47 45 57 59 57 58 61 63 60 60 55 49 46 40 34 31 29 27 26 27 27 28 30 33
65 100 91 76 69 78 92 92 95 99 76 79 53 45 36 32 32 33 34 38 51 51 60 62 59 59 58 57 52 53 49 43 38 34 32 30 28 29 29 30 30 33 34 35
70 92 99 97 79 77 96 94 96 96 84 64 57 57 41 37 35 43 60 68 58 56 63 61 57 56 54 50 47 47 40 36 33 32 32 32 32 32 33 33 36 38 38 37
88 100 100 89 64 70 97 96 95 95 83 67 73 54 39 44 55 73 75 59 59 56 63 60 54 52 49 45 42 39 36 33 32 33 33 33 34 34 34 36 37 38 37 36
86 100 100 98 86 94 73 77 80 84 82 66 57 51 49 67 77 77 57 60 59 61 63 56 50 45 41 40 37 34 32 32 33 34 33 34 34 34 35 35 36 36 35 35
68 84 100 99 98 65 55 63 82 76 62 51 59 51 52 62 67 58 62 66 61 61 58 53 46 39 36 34 32 32 32 33 34 34 34 33 33 34 35 36 36 36 34 36
76 80 98 98 96 79 53 55 60 60 66 51 55 52 55 66 84 65 66 69 64 61 56 48 41 36 34 33 32 32 32 33 34 34 34 32 33 36 37 37 35 38 38 39
92 98 97 97 94 63 51 54 68 62 61 54 56 50 50 59 58 65 64 69 64 58 52 44 39 35 34 33 32 32 33 35 36 34 34 35 37 36 36 36 37 39 40 39
66 81 88 77 77 77 51 60 56 50 52 55 58 77 72 65 64 65 65 67 62 57 49 42 38 36 35 34 34 35 36 36 35 36 38 38 38 37 37 38 41 42 39 34
74 60 58 60 52 46 48 51 48 52 56 56 60 66 70 69 73 71 64 58 53 50 47 42 39 37 36 36 36 36 36 36 38 39 40 39 39 40 40 39 41 38 38 35
63 61 67 65 50 53 49 49 52 59 60 61 66 59 56 61 61 59 57 54 50 46 43 41 39 38 37 36 36 36 36 38 39 40 40 39 38 41 43 44 42 38 36 40
60 67 64 63 52 50 50 51 57 63 60 60 60 55 56 57 57 55 54 50 46 44 42 40 40 39 38 37 36 37 38 40 41 43 42 41 42 42 42 44 45 43 44 53
60 56 55 49 52 50 50 57 60 60 61 59 59 60 56 54 54 50 50 47 46 45 44 43 41 39 37 36 36 38 38 38 38 38 38 42 44 44 43 41 38 40 33 55

GFSCGP_925_rhum_009.txt.gz
RH
56 68 67 45 42 40 38 39 35 28 25 34 35 32 26 22 22 25 25 24 24 22 19 22 25 23 21 23 26 27 27 38 46 64 93 93 91 92 84 75 72 69 59 41
73 80 47 39 40 43 44 45 41 32 29 34 36 36 28 25 24 22 22 23 22 21 20 20 21 26 26 26 28 29 32 39 51 80 95 94 91 82 72 64 68 67 53 36
61 48 45 45 50 51 45 47 43 41 35 35 39 40 27 21 21 20 19 20 20 20 19 18 19 21 27 27 28 29 36 46 68 92 96 93 86 71 61 58 59 49 37 34
55 40 50 48 53 45 52 35 38 45 51 52 38 49 26 17 18 18 18 18 18 18 18 18 18 19 22 27 30 32 40 55 75 92 92 84 78 70 61 53 43 32 32 34
55 55 55 59 50 43 50 47 47 48 54 56 45 55 33 18 18 14 14 18 18 17 16 16 17 19 20 22 29 37 44 61 71 90 85 78 67 72 54 44 32 33 34 33
44 42 47 47 44 45 46 51 53 52 64 80 46 38 31 20 14 14 14 15 15 14 14 17 18 18 21 23 30 43 50 67 74 91 82 70 66 59 51 41 36 33 32 32
59 54 48 44 55 50 53 66 68 78 91 64 24 30 26 17 15 14 16 16 15 14 14 16 18 21 28 27 29 50 64 66 74 84 81 70 68 58 53 42 36 34 33 31
76 74 56 53 55 53 62 58 58 53 40 34 26 35 25 17 15 16 16 16 16 16 14 22 24 18 25 32 34 54 68 65 74 77 80 72 58 59 50 41 35 33 32 31
69 70 46 47 46 47 58 77 48 69 53 65 40 29 22 18 18 17 17 18 17 15 24 26 27 23 19 30 37 56 64 66 70 81 79 60 61 52 42 37 33 31 30 31
54 74 48 46 51 49 54 46 83 91 79 56 33 29 28 21 19 16 16 18 16 19 23 28 31 28 22 32 44 55 60 63 72 76 62 57 51 43 36 34 31 30 30 28
48 55 68 65 69 52 66 75 90 62 70 74 66 40 20 21 23 26 30 26 26 28 29 35 37 30 28 40 48 55 58 63 70 59 57 50 44 39 34 32 31 30 27 28
48 62 80 64 42 39 44 58 58 90 68 80 68 58 25 21 21 19 24 24 23 21 29 37 41 30 38 48 53 56 58 62 58 60 51 47 41 34 34 31 28 27 27 27
52 78 82 77 57 44 54 48 47 62 81 92 88 53 21 23 24 23 21 20 21 27 36 43 44 41 46 52 55 56 57 59 59 53 46 40 36 34 31 28 26 26 26 27
49 61 83 62 69 52 88 72 65 86 96 69 62 52 38 31 29 26 24 23 26 28 42 46 48 48 50 54 55 58 61 60 55 51 47 38 33 30 27 26 26 27 29 31
56 100 80 66 58 64 70 72 72 98 94 96 61 48 40 35 34 33 29 27 37 43 47 51 52 49 52 58 58 58 56 53 46 44 43 36 30 28 27 28 29 30 32 32
64 88 94 92 68 66 80 66 80 91 91 96 94 84 48 37 33 38 48 47 58 55 51 54 53 52 56 55 54 54 47 42 41 38 33 31 30 30 31 32 34 36 35 34
76 97 97 80 54 60 88 84 95 95 84 89 94 74 47 41 47 65 67 68 66 55 51 56 54 55 49 52 46 43 45 49 52 47 36 33 34 34 35 36 37 37 36 34
81 95 95 99 84 92 54 57 67 81 69 59 59 60 54 48 58 69 71 67 58 51 56 53 52 48 46 49 50 40 39 40 42 39 34 35 36 38 38 35 36 34 34 34
62 75 95 98 79 56 58 50 75 91 71 52 68 60 51 54 75 80 61 60 54 58 51 48 43 48 56 70 64 64 47 39 36 34 36 37 36 35 35 35 34 34 32 32
66 69 93 81 94 82 48 48 58 71 67 50 60 71 54 56 94 80 68 62 60 54 45 42 44 46 44 37 43 62 56 48 45 34 32 33 34 36 36 36 34 35 35 34
94 96 94 91 98 62 39 46 59 67 59 50 61 63 63 68 64 63 64 73 68 59 59 47 54 52 38 37 35 32 32 33 32 32 34 35 35 35 34 34 34 33 36 36
68 80 82 82 92 78 42 46 59 51 46 48 54 77 58 60 63 65 63 59 51 45 38 35 33 32 31 32 33 34 34 33 34 36 36 36 35 34 34 35 36 37 34 30
63 47 52 52 50 38 40 45 42 46 50 48 53 70 58 76 80 72 66 74 55 44 38 36 34 34 34 34 35 35 34 36 37 37 37 37 36 36 35 37 38 35 32 30
50 44 57 58 41 42 40 39 45 50 52 51 54 55 54 62 59 59 59 52 48 42 39 36 35 35 35 35 35 36 37 37 38 38 38 37 36 37 40 40 37 32 31 33
55 58 55 53 45 40 45 46 49 52 51 58 53 50 52 54 55 54 52 49 44 42 39 38 38 38 36 35 36 37 37 38 39 38 38 40 40 38 38 38 38 36 38 42
48 51 58 47 44 46 46 49 49 51 54 54 54 55 52 51 53 49 48 45 43 42 41 41 39 37 36 36 37 38 40 40 38 36 36 38 42 41 39 35 32 35 30 32

GFSCGP_925_rhum_012.txt.gz
RH
54 69 76 55 52 47 47 50 48 35 27 34 35 34 31 27 27 25 27 28 28 28 24 20 21 21 23 19 21 24 26 37 71 88 87 89 83 77 82 81 84 79 69 58
69 80 49 41 40 45 48 54 52 39 30 35 40 41 34 31 29 26 25 24 24 25 25 24 21 23 24 25 22 25 27 30 45 82 82 95 90 87 84 82 77 72 62 40
65 52 45 49 48 53 52 54 50 47 41 39 42 46 40 26 29 27 25 23 22 23 24 24 23 22 25 26 27 28 28 33 35 65 93 94 93 82 74 73 68 55 42 39
53 45 44 48 53 48 56 42 43 44 55 67 45 76 42 30 22 23 24 25 24 23 22 22 21 22 22 28 26 27 29 31 41 77 94 92 84 74 68 67 60 41 39 35
62 53 56 59 49 43 49 48 50 51 61 71 58 72 46 29 29 21 18 21 24 23 24 23 24 21 18 19 28 26 29 36 66 84 91 90 82 76 66 63 53 38 34 34
50 42 45 49 43 44 46 51 52 55 64 96 66 55 40 29 25 20 15 17 20 18 21 21 19 20 22 19 18 32 30 44 74 83 91 87 80 70 62 55 40 36 34 34
58 56 49 45 55 50 52 63 93 96 98 88 37 49 37 25 22 19 18 20 17 18 20 19 21 30 26 23 22 23 39 56 79 85 90 83 77 67 60 49 45 38 34 34
87 84 57 50 57 63 66 63 89 76 82 68 43 65 37 19 18 17 17 19 20 21 20 23 30 37 32 30 27 30 45 66 87 88 86 76 71 60 58 53 43 38 36 33
79 71 48 51 49 52 66 82 56 78 68 89 58 34 26 22 22 21 20 20 22 22 22 25 29 35 34 32 35 33 53 70 86 88 82 74 65 60 56 46 43 37 35 34
55 80 50 51 47 50 57 47 84 92 97 80 50 41 40 28 27 26 25 24 27 27 30 34 37 41 37 36 32 40 60 71 80 82 81 68 65 61 53 45 39 36 35 32
46 59 68 64 70 68 69 74 79 74 87 94 80 52 26 31 26 26 29 29 27 28 31 30 42 43 42 41 33 40 63 70 79 81 68 61 57 55 46 39 35 33 32 30
46 61 93 80 52 50 52 65 65 90 81 81 82 68 33 32 28 27 27 26 24 27 30 38 49 48 46 41 46 51 58 76 68 63 56 53 50 41 38 35 32 30 29 29
50 84 93 88 63 48 58 54 53 63 75 90 93 65 27 30 30 30 28 29 26 26 30 54 52 52 54 52 51 58 77 66 62 58 55 46 38 36 35 32 30 30 28 28
51 64 85 90 78 67 97 80 64 72 98 81 76 66 48 40 37 49 54 50 44 35 56 54 58 57 64 56 76 72 66 59 54 50 44 39 38 35 33 31 29 28 27 28
57 97 84 75 64 66 73 73 69 89 94 98 80 80 66 59 55 45 41 54 54 61 56 53 60 62 62 74 69 66 60 54 48 46 42 40 37 34 30 31 31 29 30 31
61 97 98 93 71 70 80 72 70 67 76 96 95 94 67 63 53 52 68 68 68 69 61 52 54 64 66 58 62 62 55 54 48 45 40 35 34 33 33 32 32 32 32 32
83 99 96 90 64 73 87 74 79 79 82 87 97 83 66 61 54 65 75 79 76 70 61 56 56 61 54 56 55 53 50 52 49 47 47 49 50 49 41 35 34 34 33 33
87 98 99 98 90 92 55 55 62 75 74 64 63 65 66 61 74 77 72 70 67 62 55 59 51 52 50 48 52 59 65 72 71 77 79 82 77 51 42 38 36 35 34 33
72 87 98 99 92 64 50 57 67 84 76 60 72 72 58 71 72 78 71 67 63 59 50 51 55 54 61 50 55 60 61 65 74 81 80 76 62 42 40 35 33 33 32 31
78 77 94 86 95 83 58 56 62 71 87 56 73 82 60 66 84 86 83 57 49 46 46 53 70 80 80 86 72 72 82 71 71 71 65 49 39 36 34 34 33 33 32 30
94 95 97 96 97 79 47 50 60 84 72 56 55 76 72 73 72 89 88 79 70 68 70 69 66 77 97 100 99 98 99 96 86 68 50 41 37 35 35 34 32 31 30 33
79 87 93 92 98 94 43 51 65 60 54 50 53 74 72 69 70 66 65 90 83 85 83 83 92 93 88 81 60 38 37 39 38 37 36 35 35 35 33 31 33 34 32 28
68 60 68 71 71 46 45 51 45 52 58 57 55 75 71 78 80 78 78 58 55 48 42 38 39 39 37 35 36 38 38 37 37 37 36 35 34 35 36 37 35 32 30 32
53 48 67 60 48 51 49 49 53 54 56 54 56 71 75 79 72 71 65 52 44 40 40 39 38 38 38 38 39 39 39 39 38 37 36 35 36 37 37 35 33 31 32 35
66 59 64 65 58 50 55 56 53 55 56 64 58 58 65 62 64 57 56 51 46 42 41 40 39 39 39 38 39 39 38 39 37 37 38 40 39 38 37 35 34 34 37 27
60 68 74 74 52 54 60 55 50 58 61 59 63 64 60 59 60 54 54 49 46 45 42 40 39 39 40 40 40 40 40 40 39 38 39 40 40 38 36 33 32 33 33 30

GFSCGP_925_rhum_018.txt.gz
RH
88 89 94 79 75 59 57 63 66 56 44 43 46 46 42 36 37 36 32 34 34 33 29 28 26 25 26 24 23 28 28 67 79 78 89 92 79 69 73 74 72 63 65 67
76 92 70 63 63 66 68 70 72 57 44 43 50 50 41 38 36 34 32 30 29 30 32 31 26 24 23 22 22 24 27 45 79 73 67 85 81 74 71 75 70 63 66 68
81 64 62 64 60 66 64 63 61 60 53 46 55 41 41 39 36 34 30 30 30 30 29 27 27 22 22 23 21 21 26 38 56 77 84 64 87 90 89 83 74 70 69 66
64 49 65 70 65 58 66 52 53 57 61 74 57 79 64 44 38 34 31 39 38 36 33 31 30 27 21 20 19 19 19 28 61 82 89 65 72 90 85 76 74 71 71 65
76 61 58 61 60 50 59 51 54 57 69 71 70 80 64 50 44 36 30 28 27 30 36 35 33 28 22 20 19 20 20 28 54 83 89 80 83 82 82 81 81 78 70 68
56 46 52 56 49 49 54 55 66 72 76 92 70 73 61 40 35 24 22 22 20 19 20 29 25 22 23 23 22 20 21 25 44 74 92 79 87 84 86 86 81 74 66 57
67 60 50 50 63 54 57 67 85 82 96 82 64 78 69 40 33 28 30 28 26 23 21 22 22 34 32 32 32 31 30 25 32 70 90 87 80 76 79 84 80 68 57 45
87 83 64 53 61 68 68 64 81 65 96 86 62 76 51 36 32 28 26 28 25 25 26 26 27 38 40 38 37 35 34 36 41 70 76 93 86 81 81 80 80 70 60 49
88 77 58 55 53 56 72 86 62 82 78 94 76 60 38 31 25 31 36 35 37 38 33 28 29 42 42 38 30 28 31 31 36 66 89 95 94 87 83 79 75 66 57 52
65 86 62 60 51 53 60 61 86 92 91 90 75 68 49 35 29 36 34 34 36 34 36 37 37 39 42 37 28 28 32 34 36 48 90 95 91 85 85 82 75 64 58 53
54 72 72 66 73 77 75 86 80 79 90 98 95 72 45 34 31 38 37 36 36 35 34 37 39 37 49 45 42 38 35 38 43 54 100 96 88 87 86 80 71 62 56 53
51 78 93 81 60 59 65 74 76 90 79 95 92 79 40 40 37 40 40 42 49 44 40 44 46 53 56 54 50 47 42 45 40 72 99 87 85 86 81 73 67 62 57 52
52 76 92 82 74 67 74 71 69 73 85 94 92 71 40 43 38 39 48 56 62 54 53 57 65 63 64 59 54 55 54 55 70 100 89 83 84 82 73 66 61 56 53 49
56 79 78 86 76 77 87 77 72 77 98 84 79 62 48 46 46 50 55 60 65 63 59 67 69 68 68 73 85 82 83 89 96 88 82 81 76 71 63 58 55 53 50 49
63 87 91 84 78 80 79 78 77 89 74 90 65 68 60 56 56 60 60 66 67 75 75 72 72 75 89 93 86 82 82 78 79 75 70 65 62 60 56 53 52 51 52 53
66 90 89 93 83 88 92 81 78 73 70 69 67 71 54 56 62 70 81 80 81 80 77 72 71 78 88 89 89 92 81 74 67 62 55 52 52 55 51 51 51 52 50 50
77 94 89 94 72 85 93 84 77 76 76 76 90 71 58 72 72 86 82 63 64 71 68 68 77 83 93 98 99 100 93 74 75 66 64 59 61 65 62 58 55 53 56 66
87 90 95 98 87 92 60 53 61 68 70 77 80 71 65 80 79 80 63 66 67 61 62 64 70 79 92 98 100 98 98 86 86 91 93 84 72 73 66 63 71 72 68 61
71 85 98 98 98 73 58 65 67 77 75 66 77 64 75 72 78 86 67 62 70 67 64 60 68 79 88 94 98 96 99 100 98 98 88 82 69 78 81 90 88 87 86 83
74 75 95 95 99 90 56 57 69 68 91 66 64 68 77 74 89 88 74 69 69 76 72 72 78 77 85 91 92 91 98 98 98 100 100 99 97 96 94 91 90 98 98 91
95 96 98 97 96 85 59 55 68 74 60 59 59 64 70 70 79 90 76 80 78 80 83 90 96 99 100 100 99 100 100 100 100 100 99 99 98 97 95 96 80 49 37 35
88 96 99 97 98 93 55 73 73 58 59 56 56 74 77 80 77 87 85 86 86 88 88 95 98 100 100 100 98 100 100 96 88 80 80 80 71 56 39 35 33 33 31 30
89 74 83 84 78 51 50 55 58 59 66 60 59 76 79 80 77 81 87 88 87 90 90 93 93 59 53 80 91 94 91 72 50 44 41 37 35 35 33 32 31 30 31 32
67 58 71 70 59 57 55 56 56 56 59 60 65 76 79 83 73 67 68 59 46 52 59 63 50 45 46 56 65 61 58 49 39 38 37 35 34 34 32 30 29 30 32 33
80 71 68 74 72 66 62 57 56 56 65 66 76 78 82 80 63 54 52 48 45 45 43 42 44 44 44 42 42 43 44 38 37 37 37 38 37 34 32 31 29 27 30 30
77 81 84 78 63 62 61 54 55 60 65 64 76 78 76 75 65 56 58 51 45 45 44 44 44 44 42 41 40 39 38 37 38 41 41 38 35 32 32 34 48 50 50 44

GFSCGP_925_rhum_024.txt.gz
RH
75 93 89 75 75 64 67 72 72 64 52 53 59 56 48 40 41 43 43 39 37 34 32 30 26 24 24 25 28 29 31 30 51 100 99 99 100 100 99 92 87 82 79 75
97 94 79 72 67 68 69 77 78 67 51 49 57 58 47 40 42 38 35 35 34 34 34 32 27 24 24 23 25 27 30 32 47 80 98 100 99 100 92 86 84 86 83 80
82 85 79 70 74 76 74 77 74 70 57 52 63 55 45 35 36 34 35 37 38 37 35 33 33 30 27 26 24 22 25 28 48 77 90 100 98 99 100 100 91 90 87 80
84 75 86 90 87 68 76 57 58 58 63 78 60 75 57 45 47 38 35 37 39 35 38 38 36 32 30 27 26 24 23 24 30 67 98 100 97 97 97 84 78 84 90 84
92 89 88 81 79 58 65 54 59 63 72 66 64 76 57 43 35 28 32 36 33 29 27 29 29 26 24 27 25 25 24 24 24 28 77 92 100 90 81 91 90 91 89 87
72 54 58 60 61 53 59 60 67 74 74 84 64 70 50 37 34 34 35 36 37 38 36 36 32 29 26 24 36 31 24 22 24 28 48 88 92 96 90 89 92 97 96 90
71 65 54 54 65 56 59 66 84 66 84 74 70 76 56 46 44 36 40 37 43 45 46 47 45 41 36 35 33 38 41 34 27 27 35 67 91 99 90 83 84 93 95 94
92 92 61 53 60 69 65 60 77 50 74 74 71 80 46 40 34 32 36 38 42 43 46 50 49 43 40 38 35 39 40 40 41 45 42 75 100 100 98 89 91 86 85 78
84 85 60 58 57 56 73 84 63 86 84 88 67 56 36 34 39 39 41 44 45 43 45 51 54 50 44 41 36 36 34 36 39 38 37 52 93 100 99 92 90 88 88 86
66 93 67 61 56 64 62 64 81 89 63 69 60 67 54 35 35 38 44 49 49 46 46 53 62 58 52 48 41 34 44 44 44 45 43 45 51 63 76 99 98 94 91 90
62 74 80 63 71 79 74 86 83 77 86 82 81 52 50 42 36 40 50 49 51 52 54 59 63 61 57 53 54 51 52 53 48 44 47 48 47 54 67 86 96 98 95 92
56 80 97 77 64 63 66 74 75 82 76 94 94 76 46 47 43 43 46 48 58 69 72 72 75 70 68 66 63 65 65 65 60 53 50 46 43 49 63 86 100 99 94 88
61 79 94 85 71 69 74 74 70 74 82 97 88 65 44 45 46 44 44 53 69 75 72 70 76 82 76 73 81 80 76 73 70 70 66 62 68 72 85 99 100 93 87 83
57 74 76 83 72 81 92 82 78 76 96 84 84 72 50 48 45 43 46 69 70 62 62 61 68 86 86 93 93 92 86 82 83 82 91 95 95 99 98 100 96 87 83 78
62 88 88 83 77 79 76 76 84 85 77 82 69 74 56 48 45 44 68 73 64 71 68 68 76 83 92 97 98 93 85 70 81 92 93 97 100 99 96 91 86 78 74 72
68 96 93 93 75 88 97 87 81 82 76 73 69 73 49 46 46 66 77 68 73 78 70 66 72 78 88 97 98 99 100 83 69 75 83 85 87 86 81 79 78 73 76 80
73 92 92 96 77 84 90 87 82 81 77 70 83 60 49 65 62 77 77 71 70 75 71 69 77 83 93 99 99 100 100 91 86 88 83 82 81 82 84 82 83 85 88 85
80 83 91 98 82 86 54 61 64 70 65 71 66 63 53 61 71 76 68 71 69 76 71 71 73 83 93 100 99 100 100 99 98 94 92 91 85 89 87 85 90 96 96 98
67 84 98 97 87 76 58 78 74 71 64 67 67 61 64 64 75 82 73 69 77 76 73 78 84 89 99 100 99 99 99 99 99 100 100 100 100 100 100 100 100 100 98 99
73 79 94 83 81 95 52 64 67 61 75 56 73 72 68 71 85 85 78 76 81 84 90 91 95 100 100 100 100 99 99 99 100 100 100 100 100 100 99 99 98 100 100 100
100 100 92 93 94 83 60 54 66 74 65 51 63 68 67 78 77 86 83 88 87 89 92 94 98 100 100 100 99 99 100 100 100 100 100 100 100 100 99 99 100 100 99 99
90 93 96 89 99 92 65 76 71 61 61 61 63 62 68 73 82 84 86 91 88 89 90 75 86 100 100 99 96 99 97 100 100 100 100 100 100 100 100 99 99 93 62 45
92 82 90 87 79 54 58 65 59 66 66 62 63 64 71 78 85 86 89 88 94 88 85 60 71 78 88 92 92 86 64 80 87 84 70 72 69 57 48 40 36 35 34 36
76 64 73 79 67 71 64 63 62 60 64 58 64 68 78 78 83 88 87 92 93 92 81 57 64 66 63 72 64 60 59 56 44 39 38 36 35 35 34 34 34 35 37 38
81 78 80 75 69 70 61 62 58 57 58 66 70 73 79 78 82 87 86 61 66 71 66 57 62 61 58 56 46 46 48 38 37 37 37 35 33 32 28 27 26 26 30 28
83 79 86 84 71 78 75 68 61 64 66 65 72 77 78 79 78 78 64 55 56 58 56 53 54 52 51 54 47 41 39 38 38 38 36 35 34 36 41 54 62 64 62 62

GFSCGP_925_rhum_027.txt.gz
RH
82 90 85 67 60 65 68 72 72 66 55 55 60 59 49 42 42 40 38 35 33 32 30 29 27 26 28 26 25 25 30 31 50 98 100 100 100 99 99 100 93 89 86 81
93 89 70 64 67 64 67 73 75 65 52 50 56 54 44 40 43 40 37 37 36 34 32 32 31 29 27 26 24 24 24 29 33 70 90 96 98 99 100 100 99 91 89 87
83 87 69 67 75 75 76 76 77 69 56 53 59 54 44 36 36 35 31 33 34 35 33 31 29 30 29 30 28 26 25 25 29 43 85 97 95 98 99 100 99 93 93 91
91 81 74 73 78 71 82 63 63 59 64 72 59 64 48 44 33 30 33 34 32 29 28 29 30 30 26 26 31 28 27 27 29 34 86 94 91 91 97 100 100 100 95 94
97 88 93 83 82 61 69 56 61 63 69 62 61 60 41 37 33 31 35 40 41 38 37 38 38 37 39 36 32 37 28 28 27 30 67 95 96 92 94 98 99 100 100 100
76 91 82 87 77 71 58 58 65 69 68 72 61 60 37 34 35 38 36 37 42 42 43 45 46 46 45 40 36 35 39 35 27 30 54 99 99 98 100 99 100 100 100 100
74 68 72 65 67 55 57 70 84 65 78 69 67 72 45 40 41 38 36 39 40 43 43 44 48 51 51 46 42 36 38 38 40 36 32 57 100 100 100 100 100 100 100 100
91 96 69 56 62 69 66 64 78 55 58 57 71 74 39 42 40 35 37 39 44 44 43 46 49 55 56 53 50 46 38 40 34 38 44 45 47 97 96 100 100 95 93 92
84 91 62 63 58 58 70 80 58 84 84 78 56 50 35 36 39 38 40 45 45 47 51 53 55 60 62 60 55 51 45 39 40 37 37 41 63 89 92 97 99 100 99 95
67 95 70 63 58 62 62 63 77 83 68 55 49 56 39 36 36 40 42 45 48 52 58 59 59 63 65 66 62 60 59 54 52 51 47 43 44 57 78 91 98 99 100 100
64 74 82 64 70 77 72 81 78 73 77 65 55 40 44 42 36 40 43 44 48 63 66 66 64 69 72 70 73 78 79 77 74 74 71 65 56 51 49 55 51 69 100 100
60 80 92 77 66 63 65 73 67 76 75 88 82 54 41 45 45 43 44 43 59 65 68 62 62 72 81 87 93 92 89 81 77 74 73 72 73 66 61 62 74 95 100 99
61 77 94 84 74 70 74 75 67 71 79 96 73 48 45 48 45 43 45 54 66 64 63 62 67 80 90 97 99 96 92 82 72 77 80 80 86 85 89 93 94 100 98 98
56 72 72 71 68 80 89 82 71 74 87 79 76 61 46 45 49 45 46 65 66 64 68 64 67 72 88 90 92 93 96 83 76 78 89 94 94 94 91 96 98 97 94 90
60 87 86 76 68 81 78 79 82 84 74 78 60 70 52 51 50 47 47 71 64 69 70 66 70 78 86 94 95 98 97 90 80 83 91 97 95 96 97 96 92 88 86 80
68 95 92 87 76 87 95 84 81 79 72 74 71 71 47 46 51 56 74 71 71 69 73 66 70 81 89 96 95 98 98 93 90 90 88 89 90 89 86 84 86 84 86 81
71 93 89 88 76 82 93 84 83 78 78 67 81 60 50 57 59 78 78 77 72 77 72 71 72 80 91 99 100 100 100 97 92 94 91 89 93 91 96 96 94 93 93 88
78 83 90 93 78 86 51 62 67 71 67 70 65 61 56 57 68 77 72 75 77 79 76 77 80 88 98 100 100 99 99 99 100 100 100 100 99 99 99 98 100 100 100 100
62 80 98 95 84 69 62 76 76 75 66 63 64 56 58 63 71 82 75 71 78 79 77 84 94 100 99 100 100 98 99 100 100 100 100 100 100 100 100 100 100 100 100 100
79 74 81 84 87 86 53 67 66 64 81 60 65 65 70 68 80 80 79 74 82 82 88 90 97 100 99 100 98 99 100 99 100 100 100 100 99 99 99 100 100 100 100 100
100 100 97 91 88 81 58 57 66 76 68 51 65 69 70 76 74 81 80 88 88 90 89 94 98 100 100 100 100 100 99 100 100 100 100 100 100 99 100 99 100 100 99 99
82 95 83 76 88 94 63 72 70 60 59 59 63 63 67 72 84 82 80 87 90 91 78 85 97 98 97 95 98 95 98 100 99 100 100 100 100 100 100 99 100 96 86 63
94 80 88 79 77 57 61 59 61 67 64 61 63 61 65 73 86 83 86 87 93 91 69 74 82 83 90 91 88 72 75 88 86 86 82 80 71 55 43 38 39 40 39 41
79 73 81 80 67 74 67 61 64 61 65 59 61 64 70 75 83 90 85 87 90 90 67 68 72 71 69 67 71 70 67 58 42 38 38 37 35 34 34 34 34 34 36 36
82 80 81 84 74 66 67 67 58 59 60 64 68 73 76 81 84 89 92 85 86 87 64 65 70 69 61 57 59 58 45 38 37 39 39 35 32 29 28 31 30 31 34 30
87 84 92 92 73 72 73 70 71 72 78 74 71 71 76 82 82 88 86 69 71 72 63 64 68 64 58 47 42 42 38 38 38 35 34 32 32 39 49 58 64 64 64 65

GFSCGP_925_rhum_030.txt.gz
RH
71 80 75 48 43 42 42 43 41 43 48 46 41 41 38 34 31 30 27 24 22 22 21 25 25 25 26 28 31 32 32 34 39 56 88 98 100 100 100 98 98 92 90 90
92 84 50 41 48 49 48 48 48 51 44 43 41 42 34 30 30 30 29 27 24 23 22 21 21 25 26 26 27 29 29 31 33 43 56 68 88 97 100 100 99 98 93 91
93 67 45 52 51 54 52 51 59 47 48 43 44 35 36 31 28 24 23 23 22 24 19 21 22 24 28 29 32 31 30 30 32 36 50 65 78 85 89 98 99 98 99 93
93 79 53 49 58 47 57 53 56 55 54 46 44 31 35 28 26 27 27 25 26 28 28 31 32 34 36 41 44 41 34 33 32 36 46 58 69 75 72 75 89 98 98 99
97 91 66 63 55 49 53 51 51 52 54 52 46 44 30 25 26 31 32 33 33 33 34 34 37 41 42 47 50 47 44 38 33 36 43 58 65 63 64 71 82 89 99 99
93 84 85 86 69 51 46 48 49 50 52 70 47 46 25 24 25 29 30 30 35 35 36 36 40 43 42 48 49 48 41 40 44 38 38 50 62 65 67 76 84 89 96 100
97 98 84 87 87 62 52 58 78 76 85 57 51 50 27 26 28 27 31 36 36 36 38 40 41 43 47 51 51 49 44 38 40 43 45 37 48 65 70 72 77 86 93 97
90 95 97 89 74 89 58 57 62 56 47 40 54 43 28 30 27 27 30 34 37 39 42 45 45 48 50 53 52 50 48 44 40 42 42 50 56 49 64 78 88 91 89 98
78 91 63 58 52 53 62 74 45 65 61 55 32 33 28 32 32 29 30 34 41 44 47 47 48 50 52 55 56 58 57 54 49 46 53 53 49 66 72 72 81 88 92 93
60 92 62 57 52 50 53 47 66 74 68 47 28 29 28 34 31 29 33 38 40 47 48 47 47 52 57 61 64 66 67 67 69 68 65 61 60 60 64 76 78 81 88 98
51 60 76 59 60 58 59 61 58 50 55 45 27 25 23 27 30 33 33 35 39 52 50 49 50 58 64 67 70 71 71 73 70 71 69 67 65 66 64 63 67 74 83 94
53 65 80 68 58 54 53 53 44 49 69 62 57 31 27 28 29 31 33 35 41 52 51 49 53 58 66 76 79 76 77 74 70 67 72 74 76 77 76 72 75 90 94 99
48 66 88 85 66 60 65 58 52 54 62 77 49 33 34 33 32 32 38 36 47 54 53 51 52 58 70 80 83 80 78 77 74 70 73 77 82 85 84 91 93 98 96 94
46 58 67 54 70 63 80 65 57 58 69 53 44 36 35 32 36 38 39 41 53 54 57 54 54 59 75 82 84 82 83 80 75 74 78 86 90 91 94 95 94 93 90 89
50 91 80 58 60 70 66 65 65 77 55 60 41 46 33 34 39 40 44 58 56 58 59 57 58 61 71 78 83 89 85 80 79 81 85 90 89 88 88 87 90 86 82 78
56 92 85 81 69 72 80 64 61 62 58 55 49 50 33 33 37 46 57 60 63 61 62 59 60 65 76 85 94 99 91 86 80 89 91 93 92 95 97 96 97 93 90 86
59 87 83 76 64 66 74 65 63 62 59 55 62 44 37 40 42 56 60 65 62 64 62 65 66 76 92 98 100 100 96 89 86 93 97 98 98 99 100 100 98 98 96 94
61 76 83 81 68 77 52 51 51 57 51 53 48 45 42 41 45 62 61 59 64 64 65 70 82 93 97 100 100 100 100 96 95 98 99 100 100 100 100 100 100 100 100 100
50 61 85 82 72 53 49 63 60 62 58 48 50 43 40 43 56 63 62 58 62 63 68 77 93 93 96 100 99 100 98 98 99 100 100 100 99 99 100 99 99 100 99 100
61 54 60 70 78 59 46 60 56 54 68 52 48 48 49 57 64 58 61 60 64 70 74 79 90 90 89 100 100 99 98 98 98 99 100 100 100 100 100 100 100 100 99 100
78 80 76 73 68 50 38 53 57 67 60 49 53 53 58 61 52 64 60 66 67 71 77 81 84 91 92 99 100 99 99 99 100 100 99 100 100 99 99 99 98 98 98 98
66 75 82 74 78 79 47 58 54 49 51 49 53 56 58 54 61 66 67 72 70 76 77 83 84 87 91 96 94 99 100 100 100 99 99 99 99 95 94 95 99 96 83 77
73 57 56 54 52 40 49 50 51 54 54 54 57 54 55 57 62 66 73 77 71 74 69 78 80 83 85 86 82 82 77 74 74 72 70 58 49 44 40 39 40 40 40 40
65 58 61 64 47 50 47 49 51 53 55 53 52 54 57 58 58 64 72 77 78 79 62 71 71 70 68 69 69 68 62 51 40 39 39 38 36 36 36 38 37 36 35 33
60 64 60 60 57 57 55 52 51 56 57 57 57 58 59 60 61 62 67 70 73 80 64 69 68 68 62 60 59 53 43 39 41 41 38 37 33 29 30 35 33 34 36 30
63 65 66 59 52 48 51 54 62 66 65 62 64 63 60 63 63 64 65 70 77 78 66 68 71 66 56 54 53 46 41 40 38 34 35 36 40 47 52 53 56 68 68 70

GFSCGP_925_rhum_033.txt.gz
RH
76 76 68 44 32 25 23 32 27 24 38 41 39 32 26 27 27 25 22 20 18 16 16 18 22 23 24 24 25 26 27 27 29 34 46 88 96 98 100 93 70 72 74 76
85 79 43 32 30 36 36 35 36 32 36 40 28 34 29 27 26 23 22 20 18 17 17 19 18 20 22 23 24 25 27 28 29 30 32 43 74 88 95 96 97 94 84 80
73 61 41 42 38 43 36 37 35 43 43 37 38 36 32 26 27 25 22 21 20 20 19 18 21 26 30 31 33 30 28 28 28 29 30 36 49 64 79 91 96 98 99 89
76 60 50 50 48 35 42 33 43 50 48 35 34 20 30 29 26 24 22 20 20 22 23 26 27 30 33 40 45 40 39 33 30 30 30 34 42 56 66 67 73 86 92 96
96 82 56 51 42 34 46 43 46 50 52 50 42 38 26 24 27 28 28 29 28 28 28 28 32 36 35 43 48 47 40 35 36 33 33 34 39 46 55 60 61 64 77 89
94 86 78 71 44 36 43 46 47 47 49 71 42 35 28 24 22 27 27 27 29 28 30 31 35 37 37 46 49 48 43 37 35 38 40 35 39 42 49 54 57 62 69 79
99 97 92 80 61 48 46 51 75 77 85 63 41 46 26 21 20 23 26 29 29 30 32 36 38 41 43 48 50 47 43 41 38 35 37 39 38 37 45 52 57 62 72 75
100 98 97 88 78 69 57 50 63 63 58 48 42 45 28 21 22 22 28 30 32 35 37 40 42 43 44 47 50 50 50 48 45 43 39 42 42 47 46 42 56 68 76 78
94 97 89 90 70 56 70 72 42 55 38 43 33 28 27 27 26 24 26 28 35 39 42 42 41 42 46 50 52 55 56 55 55 56 55 48 46 45 52 60 61 64 69 74
55 87 89 87 72 67 66 47 71 73 75 40 30 22 27 32 30 27 27 32 35 39 43 41 41 45 51 55 58 59 60 60 61 61 60 58 55 54 54 53 58 64 65 69
45 54 71 70 68 64 59 65 53 51 50 51 25 22 22 26 28 31 31 31 34 41 46 44 44 49 53 58 62 63 63 66 62 62 58 60 60 61 62 58 54 53 62 72
47 58 79 66 52 47 46 45 42 51 63 46 48 35 20 26 28 29 32 33 33 44 47 45 45 48 54 63 66 67 68 67 68 65 63 63 65 69 69 67 71 72 78 82
44 64 88 78 60 53 59 50 46 45 54 69 47 36 24 26 28 29 35 35 36 47 48 47 45 48 57 67 72 72 72 70 68 67 68 74 81 82 80 79 79 82 84 89
40 49 68 58 72 52 67 54 51 55 68 45 36 34 32 30 30 36 37 38 45 48 51 50 49 50 59 68 76 82 81 74 70 72 77 84 86 84 83 83 83 82 83 84
44 91 77 49 54 62 60 54 55 71 54 50 32 30 28 28 34 36 41 49 52 52 53 52 53 53 63 78 85 88 85 78 73 82 84 88 92 92 92 90 90 87 84 81
48 86 77 83 58 61 69 56 51 53 52 44 39 40 27 26 33 40 47 54 55 56 56 55 56 64 77 87 90 90 89 82 77 86 91 91 93 98 98 99 100 100 99 90
53 82 87 72 57 59 69 57 54 51 48 44 50 37 33 35 37 45 52 57 57 57 58 61 65 76 85 91 95 95 94 82 85 89 91 95 98 100 99 100 100 100 99 99
53 70 77 81 68 81 52 44 41 46 45 44 39 35 34 36 39 51 53 52 57 58 60 65 74 80 83 92 99 100 100 94 94 96 96 99 100 99 99 99 100 100 99 99
40 50 71 78 63 45 35 42 52 53 52 42 44 39 35 34 45 54 53 51 54 56 60 71 82 83 89 94 96 100 98 99 99 99 100 100 99 100 100 99 100 100 98 99
47 44 58 61 68 57 46 49 43 44 62 42 39 40 42 46 62 53 55 55 56 61 65 73 78 77 89 98 97 98 98 99 99 99 99 99 99 99 99 100 100 100 99 99
67 60 70 62 62 47 33 53 48 69 63 48 44 46 49 56 51 58 53 55 57 62 68 72 75 79 86 93 98 99 98 99 99 99 99 99 100 100 99 100 100 98 98 96
59 64 64 57 66 72 38 54 57 49 46 46 48 50 53 49 54 57 57 60 60 65 72 70 77 82 87 90 93 99 99 99 99 98 99 100 99 100 98 94 92 83 75 72
58 45 48 47 48 35 37 38 44 46 48 49 52 51 50 53 54 58 62 64 62 66 69 70 74 79 82 80 79 80 81 75 74 72 64 53 44 40 37 37 36 36 35 36
47 40 54 49 40 40 38 43 44 47 50 49 48 50 51 53 51 54 59 67 65 66 63 69 70 71 74 72 72 70 66 60 43 38 36 34 33 32 33 34 32 32 29 28
44 51 56 50 43 49 44 38 38 49 52 53 52 54 56 54 54 53 56 63 66 68 62 67 65 65 64 65 61 58 46 38 40 38 37 34 29 26 31 40 39 37 42 36
49 51 57 52 37 38 38 42 47 54 56 54 55 57 54 58 57 53 54 57 64 68 65 66 67 67 61 60 56 46 39 40 39 32 32 34 37 43 46 50 58 67 70 58

GFSCGP_925_rhum_039.txt.gz
RH
86 97 87 67 69 58 58 56 54 50 42 51 54 51 41 39 31 34 32 31 28 25 20 24 24 23 23 23 24 25 25 28 41 77 87 85 84 77 70 71 73 78 77 77
97 96 70 59 60 62 51 59 54 43 43 48 53 54 44 40 36 36 35 34 30 25 26 22 23 24 26 26 25 25 25 26 27 30 33 55 79 80 76 72 68 64 67 72
94 76 57 58 58 57 52 48 51 51 46 41 41 46 43 38 33 34 33 30 25 23 25 26 37 39 36 37 36 37 35 31 28 28 29 29 31 57 74 71 72 70 67 62
74 63 59 57 58 48 56 39 44 56 57 62 40 56 37 39 36 35 32 28 25 24 35 40 41 44 44 46 47 46 43 38 36 36 33 29 30 33 33 41 65 66 67 73
96 84 72 63 53 43 49 48 55 54 62 59 50 64 48 39 43 36 31 31 32 35 41 44 41 46 50 48 49 48 46 42 41 39 41 41 38 34 33 34 39 43 58 72
91 78 92 81 62 47 47 56 58 60 66 87 63 63 52 47 39 37 41 42 41 42 43 47 44 47 52 50 50 50 50 49 47 46 45 43 44 45 43 38 38 41 46 64
96 98 82 82 73 57 55 68 95 93 94 90 53 64 48 34 34 40 44 42 40 42 53 56 56 52 51 52 54 55 56 58 58 58 56 54 54 51 49 51 56 57 46 55
95 98 95 85 74 78 73 63 84 87 96 84 49 70 49 31 31 34 38 42 44 56 59 58 55 53 54 56 59 61 61 62 62 62 61 60 60 59 57 55 54 57 67 64
99 98 92 85 88 79 75 77 50 68 56 83 63 45 33 31 41 40 43 45 51 59 60 57 54 54 58 61 64 64 66 67 67 65 63 60 61 64 66 62 59 56 55 68
77 98 96 89 82 76 74 55 82 91 89 70 62 49 50 41 42 41 40 42 48 55 60 59 58 58 62 64 66 68 70 70 69 67 67 71 74 75 76 74 74 74 72 74
59 81 99 96 98 97 86 84 69 71 83 87 57 48 35 36 34 38 37 34 42 62 62 60 59 60 66 68 70 73 73 73 70 71 76 74 78 80 81 81 83 83 83 82
53 82 99 99 81 71 70 76 65 87 77 74 81 60 31 36 34 33 33 36 46 62 61 58 55 65 70 74 75 77 77 76 73 80 78 79 82 81 80 82 81 83 87 88
55 81 98 99 90 78 90 80 75 67 74 82 78 55 38 40 40 38 40 39 61 62 62 62 62 72 80 82 82 82 83 80 79 80 82 85 87 85 84 83 82 80 83 85
47 68 76 82 72 78 82 73 74 92 96 71 69 47 44 41 40 39 47 62 64 64 63 64 72 84 83 83 82 85 84 80 81 83 87 89 90 92 92 91 88 85 82 81
61 81 69 58 64 69 68 68 69 78 65 70 50 48 41 41 40 53 64 65 65 65 64 65 77 85 86 87 84 85 83 82 84 86 91 94 94 95 95 94 92 90 86 85
66 91 81 77 59 64 71 70 68 64 59 63 61 61 34 36 49 66 69 67 65 66 65 70 77 80 84 85 88 93 88 86 88 91 94 97 96 97 99 99 99 96 96 98
72 87 91 88 62 65 76 72 66 64 58 56 67 51 37 50 54 69 72 68 68 67 69 76 82 82 85 90 96 99 93 90 92 94 98 99 99 99 99 100 100 100 100 100
79 80 91 95 80 96 49 50 55 56 55 57 51 46 43 46 54 62 66 68 69 68 74 80 85 86 86 93 99 98 94 94 96 99 99 99 99 100 100 100 100 100 100 99
63 78 92 93 96 64 54 55 55 65 62 51 52 47 45 51 62 63 62 63 66 69 75 81 84 85 87 92 97 99 100 100 99 99 99 99 99 100 100 100 100 100 98 100
57 56 75 87 90 86 59 48 43 49 73 51 47 47 48 59 68 66 68 66 73 75 79 84 85 89 89 91 99 99 99 100 100 100 100 99 99 99 99 99 100 100 100 99
74 75 87 81 79 66 47 48 49 81 70 50 49 48 51 62 61 67 70 70 72 77 79 80 86 91 92 92 98 96 93 99 98 95 95 94 95 95 98 100 99 86 69 76
76 85 89 85 84 86 60 60 72 62 57 56 56 57 62 71 70 70 71 74 76 80 81 79 86 91 91 94 98 96 96 97 96 95 96 95 92 93 89 69 52 50 49 50
74 69 74 71 70 48 60 53 54 56 58 56 61 62 68 72 70 69 73 76 77 80 81 79 83 89 92 92 92 99 98 92 90 90 88 71 66 64 51 43 42 43 40 36
52 54 61 58 49 49 47 56 55 54 59 59 60 59 59 62 67 70 72 74 75 77 79 80 85 91 93 91 92 84 89 85 84 70 49 42 39 38 37 35 35 33 30 28
62 58 62 65 57 52 47 56 62 63 62 62 59 59 60 60 63 69 75 74 70 75 77 78 84 88 89 87 86 83 78 73 73 44 36 34 34 31 29 30 30 29 30 34
64 66 70 74 57 54 52 51 62 69 69 68 65 61 60 65 72 68 73 72 73 76 76 77 80 84 83 82 80 76 72 68 45 38 36 34 30 28 35 41 50 46 38 32

GFSCGP_925_rhum_042.txt.gz
RH
92 86 86 78 72 60 64 57 64 54 46 49 50 55 46 42 36 40 38 34 30 26 28 27 27 26 26 26 26 27 47 76 83 86 86 83 82 79 74 72 74 73 74 79
96 86 69 66 66 63 61 62 60 47 44 51 55 56 48 46 44 38 35 36 34 26 28 28 30 30 30 30 30 32 31 30 30 39 65 85 89 88 84 81 74 72 74 74
88 74 67 64 71 74 60 67 56 51 48 43 46 51 50 44 42 37 38 35 34 30 28 35 45 42 39 38 39 37 36 36 37 32 30 30 32 45 65 67 71 64 69 75
86 66 71 69 68 60 69 45 43 55 59 72 42 68 42 41 43 42 40 38 33 28 30 45 47 49 47 48 46 44 44 41 40 41 41 39 34 33 31 33 34 36 55 68
95 81 72 72 64 46 54 45 59 56 63 60 53 58 47 41 50 44 46 36 33 35 48 49 50 53 52 49 47 46 46 46 45 42 41 42 44 46 45 41 38 36 37 45
93 84 83 70 60 47 54 59 64 70 68 82 64 63 62 48 45 41 38 39 38 48 51 53 54 55 55 53 51 51 52 54 53 53 52 50 51 50 48 48 51 52 46 41
97 96 83 83 66 57 57 65 92 90 92 82 58 71 49 40 36 39 46 51 51 53 62 64 65 60 57 57 57 58 59 60 60 58 58 59 58 58 57 57 56 56 61 60
98 99 93 86 76 72 64 59 85 83 98 81 54 71 54 36 34 36 41 44 48 57 66 66 64 60 61 63 63 63 65 66 64 63 61 61 62 63 64 64 63 60 58 73
96 98 88 84 89 78 73 81 56 72 70 86 67 56 38 38 42 45 45 47 52 65 69 67 62 61 64 66 67 68 69 69 68 67 66 67 69 72 76 73 72 71 64 58
83 98 96 86 83 74 72 59 80 91 85 74 62 63 52 43 49 46 48 52 62 65 68 66 68 67 68 68 70 70 70 70 69 70 71 74 78 80 82 82 80 81 83 86
74 80 99 92 97 88 86 95 81 79 79 87 72 58 40 41 45 46 46 49 58 66 68 67 69 70 72 73 72 73 73 72 71 74 75 75 77 80 82 82 84 87 86 86
63 91 100 98 84 72 74 85 66 91 90 84 83 62 36 37 40 43 40 37 41 63 65 67 72 77 78 80 79 77 77 76 77 78 78 81 83 83 82 81 81 82 83 87
61 88 98 98 90 84 96 88 72 68 78 82 78 53 40 38 36 34 36 41 64 65 67 70 79 82 84 84 82 81 82 81 80 80 82 85 86 86 86 85 85 82 82 84
51 75 77 81 70 84 98 89 82 80 92 72 81 51 42 42 40 39 41 55 68 66 66 72 85 87 86 83 83 84 83 82 82 85 88 89 91 91 92 91 90 86 85 84
56 80 72 62 68 71 73 77 80 94 69 83 56 60 44 40 42 42 55 69 70 71 69 71 84 90 90 86 86 84 83 85 86 90 92 96 96 96 96 95 94 92 90 90
70 92 75 75 61 65 70 71 75 78 78 78 61 67 44 35 41 62 72 71 68 69 67 72 78 87 88 86 88 90 88 88 89 91 95 97 97 98 100 100 100 100 100 100
74 88 88 83 68 66 76 70 70 70 64 67 72 48 41 47 44 68 75 72 68 68 69 76 80 83 85 87 92 96 91 90 93 95 96 99 100 100 100 100 100 99 99 100
80 80 88 95 75 89 53 49 51 59 60 56 54 48 42 46 55 67 68 72 71 69 73 80 85 86 87 93 99 95 93 94 95 96 98 99 99 99 99 100 100 100 100 98
66 82 93 94 96 69 56 58 63 67 60 52 56 52 46 51 61 61 66 64 67 70 75 80 80 85 89 98 98 97 99 98 99 100 99 99 99 99 99 99 100 100 100 98
60 60 80 92 94 89 52 50 45 50 74 51 52 54 51 66 71 61 68 66 70 72 76 82 83 86 89 95 98 99 100 99 100 99 99 99 98 98 100 99 100 100 100 100
77 75 88 88 83 74 50 48 50 71 61 61 53 51 58 63 54 57 74 74 73 77 81 82 85 90 90 96 95 94 96 96 94 95 96 99 100 98 100 99 94 74 69 69
74 84 90 85 94 88 52 58 69 60 58 60 56 57 63 61 74 75 74 81 82 83 85 84 91 91 92 96 96 94 91 90 90 92 92 93 97 100 99 74 50 50 54 52
73 67 78 77 74 48 53 54 53 57 59 57 60 64 69 74 72 73 75 81 82 82 84 84 87 91 94 95 99 98 94 95 97 98 98 95 95 75 49 49 48 49 43 38
57 59 64 62 51 55 48 54 58 58 56 57 60 64 68 68 71 72 74 75 78 82 84 84 88 95 99 96 95 95 98 93 96 94 88 74 66 63 56 46 39 37 36 31
67 60 65 68 58 58 54 56 58 59 61 62 60 59 61 64 69 70 73 75 74 80 83 84 86 89 92 91 92 87 88 90 90 84 60 48 43 40 35 33 31 30 29 31
66 69 75 74 56 54 51 49 62 70 69 68 67 65 63 64 69 66 74 72 74 79 81 84 84 85 86 85 86 86 85 81 78 74 46 36 34 37 32 35 43 42 37 33